SHT14V EGLL-EGJB

Flight info

Callsign SHT14V
Flight time 0h 32m
Altitude 21000
Route GOGSI2G GOGSI N621 SAM/N0384F200 N63 LELNA LELNA1V
Aircraft A319/M-SDE3FGIJ1KRWXY/LB1

Departure

Time 2026-04-25 14:02
Airport London Heathrow Airport (EGLL)

Arrival

Time 2026-04-25 14:34
Airport Guernsey Airport (EGJB)
Time Latitude Longitude Altitude Speed Heading
2026-04-25 13:30 51.46933 -0.48573 89 ft 0 kts 360°
2026-04-25 13:51 51.46920 -0.48573 86 ft 4 kts 360°
2026-04-25 13:52 51.46897 -0.48572 86 ft 3 kts
2026-04-25 13:52 51.46879 -0.48582 90 ft 4 kts 76°
2026-04-25 13:52 51.46877 -0.48622 86 ft 4 kts 90°
2026-04-25 13:52 51.46877 -0.48633 86 ft 0 kts 90°
2026-04-25 13:55 51.46877 -0.48626 86 ft 2 kts 89°
2026-04-25 13:55 51.46877 -0.48565 86 ft 9 kts 89°
2026-04-25 13:55 51.46840 -0.48472 86 ft 14 kts 169°
2026-04-25 13:55 51.46797 -0.48469 86 ft 4 kts 178°
2026-04-25 13:56 51.46746 -0.48469 86 ft 14 kts 180°
2026-04-25 13:56 51.46653 -0.48401 86 ft 17 kts 98°
2026-04-25 13:56 51.46653 -0.48191 86 ft 20 kts 90°
2026-04-25 13:56 51.46654 -0.47955 86 ft 23 kts 90°
2026-04-25 13:57 51.46655 -0.47687 86 ft 25 kts 89°
2026-04-25 13:57 51.46655 -0.47595 86 ft 26 kts 89°
2026-04-25 13:57 51.46657 -0.47076 89 ft 30 kts 89°
2026-04-25 13:57 51.46658 -0.46745 87 ft 30 kts 89°
2026-04-25 13:58 51.46659 -0.46406 86 ft 30 kts 90°
2026-04-25 13:58 51.46660 -0.46080 89 ft 29 kts 90°
2026-04-25 13:58 51.46661 -0.45745 86 ft 31 kts 89°
2026-04-25 13:58 51.46662 -0.45416 86 ft 31 kts 89°
2026-04-25 13:59 51.46663 -0.45078 87 ft 30 kts 90°
2026-04-25 13:59 51.46665 -0.44724 87 ft 33 kts 89°
2026-04-25 13:59 51.46665 -0.44386 86 ft 31 kts 90°
2026-04-25 13:59 51.46660 -0.44087 86 ft 17 kts 115°
2026-04-25 14:00 51.46545 -0.44052 87 ft 19 kts 180°
2026-04-25 14:00 51.46493 -0.44160 86 ft 5 kts 269°
2026-04-25 14:00 51.46493 -0.44163 86 ft 0 kts 269°
2026-04-25 14:01 51.46493 -0.44166 86 ft 0 kts 269°
2026-04-25 14:01 51.46492 -0.44236 87 ft 28 kts 269°
2026-04-25 14:01 51.46489 -0.44586 88 ft 68 kts 272°
2026-04-25 14:01 51.46486 -0.46163 87 ft 142 kts 269°
2026-04-25 14:02 51.46479 -0.47840 521 ft 152 kts 269°
2026-04-25 14:02 51.46456 -0.49544 1166 ft 152 kts 269°
2026-04-25 14:02 51.46433 -0.51298 1612 ft 166 kts 269°
2026-04-25 14:02 51.46425 -0.51916 1718 ft 174 kts 269°
2026-04-25 14:03 51.46380 -0.55511 2308 ft 214 kts 269°
2026-04-25 14:03 51.46360 -0.57204 2649 ft 231 kts 269°
2026-04-25 14:03 51.46330 -0.59880 3224 ft 254 kts 269°
2026-04-25 14:03 51.46196 -0.62754 4121 ft 263 kts 258°
2026-04-25 14:04 51.45759 -0.65622 5185 ft 266 kts 256°
2026-04-25 14:04 51.45464 -0.68570 6169 ft 270 kts 269°
2026-04-25 14:04 51.45440 -0.71597 7152 ft 273 kts 270°
2026-04-25 14:04 51.45415 -0.74630 8086 ft 277 kts 270°
2026-04-25 14:05 51.45358 -0.77733 9025 ft 281 kts 264°
2026-04-25 14:05 51.44820 -0.80785 9932 ft 287 kts 245°
2026-04-25 14:05 51.43633 -0.83429 10534 ft 305 kts 225°
2026-04-25 14:05 51.41990 -0.85784 10833 ft 328 kts 223°
2026-04-25 14:06 51.40145 -0.88044 11411 ft 339 kts 214°
2026-04-25 14:06 51.38157 -0.90136 12186 ft 343 kts 214°
2026-04-25 14:06 51.36162 -0.92242 12980 ft 346 kts 215°
2026-04-25 14:06 51.34185 -0.94383 13755 ft 349 kts 216°
2026-04-25 14:07 51.32181 -0.96595 14473 ft 352 kts 216°
2026-04-25 14:07 51.30157 -0.98847 15126 ft 355 kts 217°
2026-04-25 14:07 51.28104 -1.01112 15809 ft 359 kts 216°
2026-04-25 14:07 51.26020 -1.03326 16491 ft 362 kts 215°
2026-04-25 14:08 51.23869 -1.05551 17184 ft 365 kts 214°
2026-04-25 14:08 51.21741 -1.07722 17845 ft 369 kts 214°
2026-04-25 14:08 51.19595 -1.09900 18126 ft 371 kts 214°
2026-04-25 14:08 51.17416 -1.12116 18194 ft 371 kts 214°
2026-04-25 14:09 51.15247 -1.14330 18198 ft 371 kts 214°
2026-04-25 14:09 51.13060 -1.16570 18674 ft 374 kts 215°
2026-04-25 14:09 51.10866 -1.18821 19266 ft 376 kts 215°
2026-04-25 14:09 51.09405 -1.20324 19669 ft 377 kts 215°
2026-04-25 14:10 51.06446 -1.23362 20122 ft 379 kts 215°
2026-04-25 14:10 51.04223 -1.25640 20183 ft 378 kts 215°
2026-04-25 14:10 51.02012 -1.27900 20427 ft 379 kts 214°
2026-04-25 14:10 50.99811 -1.30142 20677 ft 380 kts 214°
2026-04-25 14:11 50.97580 -1.32410 20926 ft 381 kts 214°
2026-04-25 14:11 50.95329 -1.34644 21124 ft 383 kts 211°
2026-04-25 14:11 50.92959 -1.36569 21189 ft 382 kts 209°
2026-04-25 14:11 50.90587 -1.38461 21192 ft 381 kts 209°
2026-04-25 14:12 50.88208 -1.40357 21193 ft 381 kts 209°
2026-04-25 14:12 50.85831 -1.42252 21188 ft 382 kts 209°
2026-04-25 14:12 50.83449 -1.44148 21195 ft 383 kts 209°
2026-04-25 14:12 50.81107 -1.46008 21195 ft 383 kts 209°
2026-04-25 14:13 50.78715 -1.47908 21195 ft 383 kts 209°
2026-04-25 14:13 50.76328 -1.49805 21202 ft 383 kts 209°
2026-04-25 14:13 50.73946 -1.51697 21215 ft 383 kts 209°
2026-04-25 14:13 50.71555 -1.53590 21215 ft 383 kts 209°
2026-04-25 14:14 50.69171 -1.55476 21214 ft 383 kts 209°
2026-04-25 14:14 50.66814 -1.57341 21217 ft 383 kts 209°
2026-04-25 14:14 50.64421 -1.59235 21217 ft 383 kts 209°
2026-04-25 14:14 50.62028 -1.61127 21208 ft 383 kts 209°
2026-04-25 14:15 50.59640 -1.63014 21208 ft 383 kts 209°
2026-04-25 14:15 50.58060 -1.64260 21208 ft 383 kts 209°
2026-04-25 14:15 50.54896 -1.66743 21208 ft 383 kts 208°
2026-04-25 14:15 50.52510 -1.68612 21208 ft 383 kts 208°
2026-04-25 14:16 50.50123 -1.70483 21211 ft 383 kts 208°
2026-04-25 14:16 50.47735 -1.72353 21213 ft 383 kts 208°
2026-04-25 14:16 50.45346 -1.74219 21213 ft 383 kts 208°
2026-04-25 14:16 50.42952 -1.76089 21214 ft 383 kts 208°
2026-04-25 14:17 50.40597 -1.77928 21207 ft 383 kts 208°
2026-04-25 14:17 50.38209 -1.79792 21208 ft 383 kts 208°
2026-04-25 14:17 50.35821 -1.81653 21209 ft 383 kts 208°
2026-04-25 14:17 50.33433 -1.83508 21210 ft 383 kts 208°
2026-04-25 14:18 50.31047 -1.85363 21205 ft 383 kts 208°
2026-04-25 14:18 50.28654 -1.87224 21201 ft 384 kts 208°
2026-04-25 14:18 50.26257 -1.89084 21200 ft 384 kts 208°
2026-04-25 14:18 50.23855 -1.90942 21202 ft 384 kts 208°
2026-04-25 14:19 50.21488 -1.92777 21196 ft 385 kts 208°
2026-04-25 14:19 50.19154 -1.94581 21197 ft 385 kts 208°
2026-04-25 14:19 50.16747 -1.96436 21194 ft 385 kts 208°
2026-04-25 14:19 50.14345 -1.98286 20879 ft 384 kts 208°
2026-04-25 14:20 50.11948 -2.00131 20327 ft 383 kts 208°
2026-04-25 14:20 50.10374 -2.01342 20005 ft 381 kts 208°
2026-04-25 14:20 50.07217 -2.03768 19348 ft 376 kts 208°
2026-04-25 14:20 50.04870 -2.05570 18830 ft 373 kts 208°
2026-04-25 14:21 50.02580 -2.07326 18313 ft 369 kts 208°
2026-04-25 14:21 50.00289 -2.09087 17794 ft 364 kts 209°
2026-04-25 14:21 49.98179 -2.11188 17291 ft 356 kts 220°
2026-04-25 14:21 49.96408 -2.13839 16818 ft 350 kts 230°
2026-04-25 14:22 49.94807 -2.16656 16328 ft 345 kts 230°
2026-04-25 14:22 49.93226 -2.19436 15854 ft 341 kts 230°
2026-04-25 14:22 49.91680 -2.22149 15388 ft 338 kts 230°
2026-04-25 14:22 49.90127 -2.24867 14918 ft 335 kts 230°
2026-04-25 14:23 49.88584 -2.27558 14457 ft 332 kts 230°
2026-04-25 14:23 49.87050 -2.30228 13994 ft 329 kts 230°
2026-04-25 14:23 49.85543 -2.32846 13494 ft 327 kts 229°
2026-04-25 14:23 49.84036 -2.35463 13039 ft 323 kts 229°
2026-04-25 14:24 49.82557 -2.38031 12595 ft 319 kts 229°
2026-04-25 14:24 49.81079 -2.40594 12146 ft 317 kts 229°
2026-04-25 14:24 49.79626 -2.43114 11557 ft 319 kts 229°
2026-04-25 14:24 49.78147 -2.45676 11083 ft 317 kts 229°
2026-04-25 14:25 49.76677 -2.48212 10642 ft 315 kts 229°
2026-04-25 14:25 49.75223 -2.50716 10358 ft 308 kts 229°
2026-04-25 14:25 49.73817 -2.53139 10228 ft 296 kts 229°
2026-04-25 14:25 49.73359 -2.53930 10161 ft 294 kts 229°
2026-04-25 14:26 49.71137 -2.57764 9980 ft 288 kts 229°
2026-04-25 14:26 49.69786 -2.60094 9570 ft 294 kts 229°
2026-04-25 14:26 49.68432 -2.62455 9242 ft 290 kts 229°
2026-04-25 14:26 49.67102 -2.64785 8850 ft 287 kts 229°
2026-04-25 14:27 49.65785 -2.67094 8323 ft 285 kts 230°
2026-04-25 14:27 49.64477 -2.69383 7800 ft 284 kts 229°
2026-04-25 14:27 49.63178 -2.71653 7291 ft 282 kts 230°
2026-04-25 14:27 49.61887 -2.73905 6781 ft 282 kts 230°
2026-04-25 14:28 49.60593 -2.76164 6276 ft 280 kts 230°
2026-04-25 14:28 49.59309 -2.78407 5711 ft 277 kts 230°
2026-04-25 14:28 49.57933 -2.80464 5149 ft 274 kts 216°
2026-04-25 14:28 49.56267 -2.81788 4618 ft 272 kts 199°
2026-04-25 14:29 49.54382 -2.82298 4007 ft 272 kts 182°
2026-04-25 14:29 49.52558 -2.82301 3656 ft 262 kts 181°
2026-04-25 14:29 49.50792 -2.82296 3501 ft 244 kts 181°
2026-04-25 14:29 49.49157 -2.82293 3387 ft 226 kts 180°
2026-04-25 14:30 49.47632 -2.82290 3284 ft 215 kts 181°
2026-04-25 14:30 49.44768 -2.82238 3087 ft 198 kts 172°
2026-04-25 14:30 49.43565 -2.81353 2880 ft 197 kts 135°
2026-04-25 14:31 49.42970 -2.79543 2607 ft 194 kts 97°
2026-04-25 14:31 49.42992 -2.77484 2377 ft 191 kts 88°
2026-04-25 14:31 49.43057 -2.75472 2112 ft 186 kts 88°
2026-04-25 14:31 49.43116 -2.73511 1858 ft 180 kts 88°
2026-04-25 14:32 49.43171 -2.71646 1618 ft 169 kts 88°
2026-04-25 14:32 49.43220 -2.69930 1402 ft 156 kts 88°
2026-04-25 14:32 49.43266 -2.68336 1214 ft 141 kts 87°
2026-04-25 14:32 49.43307 -2.66896 1032 ft 130 kts 87°
2026-04-25 14:33 49.43346 -2.65523 864 ft 127 kts 87°
2026-04-25 14:33 49.43384 -2.64175 690 ft 126 kts 86°
2026-04-25 14:33 49.43421 -2.62855 542 ft 125 kts 86°
2026-04-25 14:33 49.43459 -2.61558 365 ft 123 kts 86°
2026-04-25 14:34 49.43494 -2.60337 310 ft 90 kts 88°
2026-04-25 14:34 49.43510 -2.59812 325 ft 25 kts 84°
2026-04-25 14:34 49.43517 -2.59536 332 ft 28 kts 88°
2026-04-25 14:34 49.43522 -2.59311 335 ft 15 kts 88°
2026-04-25 14:35 49.43499 -2.59211 331 ft 17 kts 149°
2026-04-25 14:35 49.43382 -2.59225 331 ft 7 kts 217°
2026-04-25 14:35 49.43371 -2.59296 334 ft 8 kts 266°
2026-04-25 14:35 49.43368 -2.59394 334 ft 11 kts 267°
2026-04-25 14:36 49.43365 -2.59494 330 ft 4 kts 268°
2026-04-25 14:36 49.43364 -2.59540 328 ft 5 kts 267°
2026-04-25 14:36 49.43364 -2.59552 331 ft 0 kts 267°
2026-04-25 14:37 49.43364 -2.59553 331 ft 0 kts 267°
2026-04-25 14:37 49.43364 -2.59558 331 ft 2 kts 268°
2026-04-25 14:37 49.43362 -2.59603 330 ft 6 kts 265°
2026-04-25 14:38 49.43322 -2.59623 330 ft 7 kts 186°
2026-04-25 14:38 49.43274 -2.59621 329 ft 4 kts 179°
2026-04-25 14:38 49.43260 -2.59621 328 ft 0 kts 178°
2026-04-25 14:38 49.43253 -2.59620 328 ft 0 kts 178°